STARLINK-11588, 63319

Orbit data source: Space-Track

STARLINK-11588, 63319 is a payload satellite owned by SpaceX/Seattle (US) in LEO that was launched on Tue, 18 Mar 2025 UTC via an FALCON 9 launch vehicle from the Air Force Eastern Test Range (AFETR). Payload-class satellites include a variety of spacecraft equipped with specific instruments for various scientific and technological missions. These include communications satellites like Starlink; space stations such as the ISS; scientific satellites like the Hubble; Earth observation satellites from companies like Planet Labs, Umbra, and HawkEye 360; GPS; miniature CubeSats for education and research; and military/defense satellites.

Loading next visibility...
Identifier
63319, 2025-057N
Orbit
LEO
Last TLE update
10 hours ago
Origin
Manufacturer
SpaceX/Seattle
Mission
Operational Commercial Communications
Bus & Motor
STARLINK V2M, Unknown motor
Mass
730 kg wet, ~700 kg dry
Launch date (UTC)
2025-03-18 (4 months ago)
Launch vehicle
FALCON 9
Launch site
Air Force Eastern Test Range (AFETR)
Object type
Payload
Rocket body
Debris
Shape & HBR
Box + 2 Pan, 29 m
Radar Cross Section
36.964 m², Large (>1 m²)

Expand to show TLE details & history

TLE from 10 hours ago
0 STARLINK-11588
1 63319U 25057N   25183.45734537  .00141003  00000-0  10824-2 0  9994
2 63319  42.9992 332.7505 0002310 270.8131  89.2472 15.70870156 17822
Epoch: 2025-07-02T10:58Z
TLE epoch observation values (Epoch: 2025-07-02T10:58:34.639Z)
Latitude
-0.00004°
Longitude
-112.63204°
Altitude
356.16 km
Speed
7.697 km/s
True Right ascension
22h 11m 00s
True Declination
0° 00' 00"
Sunlit
Object was in full shadow at epoch
Visualization orbit readout
Latitude
-24.59149°
Longitude
94.04721°
Altitude
361.203 km
Speed
7.694 km/s
Apparent Right ascension
15h 25m 38s
Apparent Declination
-56° 11' 48"
Sunlit
Object is in daylight
Visualization observer readout
Local Sidereal Time
08:47:17
Azimuth
136.49° SSE
Elevation
-37.175°
Doppler factor
1
Orbital elements
Apogee altitude
359.947 km
Perigee altitude
356.834 km
Semi-major axis
6,736.528 km
Eccentricity
0.00023
Inclination
42.9992°
RAAN
332.7505°
Arg. of periapsis
270.8131°
True anomaly
Unknown
Mean anomaly
89.2472°
Eccentric anomaly
Unknown
Mean motion
3.92545 °/min
Orbital period
91.71 mins
BSTAR
0.0010824
Loading maneuver chart data...
Loading SW <> Apogee altitude chart data...
Loading historical data...
Loading historical data...
Loading historical data...
Loading historical data...
Loading historical data...
Loading historical data...
Loading historical data...

STARLINK-11588 Visibility forecast

Observer location: undefined°, undefined°

Span
Click to sort rows by Start time (UTC) header in descending order
Start Az.
Max El. time (UTC)
Max El. Az.
Max El.
End time (UTC)
End Az.
4 mins2025-07-03 13:08:09.490Z206.71° SW2025-07-03 13:10:09.490Z140.098° SSE27.503°2025-07-03 13:12:09.490Z89.925° E
4 mins2025-07-03 14:44:09.490Z272.211° WNW2025-07-03 14:46:09.490Z15.908° NNE39.742°2025-07-03 14:48:09.490Z66.235° ENE
4 mins2025-07-03 17:57:09.490Z276.382° WNW2025-07-03 17:58:09.490Z236.675° WSW41.594°2025-07-03 18:01:09.490Z119.342° SE
|